Tracking 29034 objects as of 25-Jun-2024
HD Live streaming from Space Station
objects crossing your sky now

JILIN-01 GAOFEN 3D 33

Track JILIN-01 GAOFEN 3D 33 now!
10-day predictions


NORAD ID: 52450
Int'l Code: 2022-048H
Perigee: 481.3 km
Apogee: 500.0 km
Inclination: 97.6 °
Period: 94.3 minutes
Semi major axis: 6861 km
RCS: Unknown
Launch date: May 5, 2022
Source: People's Republic of China (PRC)
Launch site: Taiyaun Space Center, China (TSC)
Your satellite tracking list
Your tracking list is empty




NASA's NSSDC Master Catalog

Two Line Element Set (TLE):
1 52450U 22048H   24176.85558905  .00016377  00000-0  61071-3 0  9999
2 52450  97.5992 256.9031 0013604  99.0391 261.2388 15.27420409118486
Source of the keplerian elements: AFSPC